Time,TemperatureF,DewpointF,PressureIn,WindDirection,WindDirectionDegrees,WindSpeedMPH,WindSpeedGustMPH,Humidity,HourlyPrecipIn,Conditions,Clouds,dailyrainin,SolarRadiationWatts/m^2,SoftwareType,DateUTC
2013-12-16 00:00:00,17.0,7.0,-100.00,West,270,7.0,-999.0,65,-99.99,,,-99.99,0.000000,,2013-12-16 05:00:00,
2013-12-16 00:43:00,17.0,7.0,-100.00,West,270,7.0,-999.0,65,-99.99,,,-99.99,0.000000,,2013-12-16 05:43:00,
2013-12-16 00:53:00,17.0,7.0,-100.00,West,270,7.0,-999.0,65,-99.99,,,-99.99,0.000000,,2013-12-16 05:53:00,
2013-12-16 03:00:00,17.0,8.0,-100.00,WNW,292,5.0,-999.0,69,-99.99,,,-99.99,0.000000,,2013-12-16 08:00:00,
2013-12-16 03:42:00,17.0,8.0,-100.00,WNW,292,5.0,-999.0,69,-99.99,,,-99.99,0.000000,,2013-12-16 08:42:00,
2013-12-16 03:52:00,17.0,8.0,-100.00,WNW,292,5.0,-999.0,69,-99.99,,,-99.99,0.000000,,2013-12-16 08:52:00,
2013-12-16 06:00:00,14.0,9.0,-100.00,SSE,157,3.0,-999.0,77,-99.99,,,-99.99,0.000000,,2013-12-16 11:00:00,
2013-12-16 06:42:00,14.0,9.0,-100.00,SSE,157,3.0,-999.0,77,-99.99,,,-99.99,0.000000,,2013-12-16 11:42:00,
2013-12-16 06:53:00,14.0,9.0,-100.00,SSE,157,3.0,-999.0,77,-99.99,,,-99.99,0.000000,,2013-12-16 11:53:00,
2013-12-16 09:00:00,10.0,5.0,-100.00,South,180,4.0,-999.0,79,-99.99,,,-99.99,51.040001,,2013-12-16 14:00:00,
2013-12-16 09:42:00,10.0,5.0,-100.00,South,180,4.0,-999.0,79,-99.99,,,-99.99,51.040001,,2013-12-16 14:42:00,
2013-12-16 09:52:00,10.0,5.0,-100.00,South,180,4.0,-999.0,79,-99.99,,,-99.99,51.040001,,2013-12-16 14:52:00,
2013-12-16 12:00:00,20.0,8.0,-100.00,SSE,157,4.0,-999.0,58,-99.99,,,-99.99,396.720001,,2013-12-16 17:00:00,
2013-12-16 12:43:00,20.0,8.0,-100.00,SSE,157,4.0,-999.0,58,-99.99,,,-99.99,396.720001,,2013-12-16 17:43:00,
2013-12-16 12:52:00,20.0,8.0,-100.00,SSE,157,4.0,-999.0,58,-99.99,,,-99.99,396.720001,,2013-12-16 17:52:00,
2013-12-16 15:00:00,22.0,8.0,-100.00,SE,135,4.0,-999.0,52,-99.99,,,-99.99,327.119995,,2013-12-16 20:00:00,
2013-12-16 15:42:00,22.0,8.0,-100.00,SE,135,4.0,-999.0,52,-99.99,,,-99.99,327.119995,,2013-12-16 20:42:00,
2013-12-16 15:53:00,22.0,8.0,-100.00,SE,135,4.0,-999.0,52,-99.99,,,-99.99,327.119995,,2013-12-16 20:53:00,
2013-12-16 18:00:00,18.0,9.0,-100.00,SE,135,4.0,-999.0,68,-99.99,,,-99.99,1.160000,,2013-12-16 23:00:00,
2013-12-16 18:43:00,18.0,9.0,-100.00,SE,135,4.0,-999.0,68,-99.99,,,-99.99,1.160000,,2013-12-16 23:43:00,
2013-12-16 18:53:00,18.0,9.0,-100.00,SE,135,4.0,-999.0,68,-99.99,,,-99.99,1.160000,,2013-12-16 23:53:00,
2013-12-16 21:00:00,16.0,13.0,-100.00,SE,135,1.0,-999.0,88,-99.99,,,-99.99,0.000000,,2013-12-17 02:00:00,
2013-12-16 21:42:00,16.0,13.0,-100.00,SE,135,1.0,-999.0,88,-99.99,,,-99.99,0.000000,,2013-12-17 02:42:00,
2013-12-16 21:52:00,16.0,13.0,-100.00,SE,135,1.0,-999.0,88,-99.99,,,-99.99,0.000000,,2013-12-17 02:52:00,